Flag for Bermuda Weather past 2 weeks in Hamilton, Bermuda

Now
79 °F

Passing clouds.


Feels Like: 82 °F
Forecast: 79 / 83 °F
Wind: 8 mph from Southwest

Location: Bermuda

Current Time: Sep 3, 2015 at 6:44:51 AM

Latest Report: Sep 3, 2015 at 5:55 AM


Visibility: N/A

Pressure: 29.89 "Hg

Humidity: 84%

Dew point: 73 °F

Location of HamiltonLocation

Historic Weather in Hamilton — Graph

°F

Hamilton temperature yesterday

Maximum temperature yesterday: 82 °F (at 1:55 PM)
Minimum temperature yesterday: 77 °F (at 10:01 AM)
Average temperature yesterday: 80 °F

Past Weeks' High & Low Weather Summary

 TemperatureHumidityPressure
High86 °F (Aug 26, 11:55 AM)94% (Aug 25, 10:55 AM)30.18 "Hg (Aug 25, 10:55 AM)
Low54 °F (Aug 23, 12:55 PM)66% (Aug 19, 10:55 AM)29.86 "Hg (Aug 22, 2:55 AM)
Average81 °F78%30.03 "Hg
* Reported Aug 19 5:55 AM — Sep 3 5:55 AM, Hamilton, Weather by CustomWeather, © 2015

Note: Actual official high and low records may vary slightly from our data, if they occured in-between our weather recording intervals... More about our weather records

Advertising

Hamilton weather history for previous 24 hours

 ConditionsComfort  
Time TempWeatherWind HumidityBarometerVisibility
5:55 AM
Thu, Sep 3
79 °FPassing clouds.8 mph84%29.89 "HgN/A
4:55 AM79 °FPartly cloudy.7 mph84%29.89 "HgN/A
3:55 AM79 °FPassing clouds.10 mph84%29.89 "HgN/A
2:55 AM79 °FPartly cloudy.9 mph84%29.92 "HgN/A
1:55 AM79 °FPartly cloudy.7 mph84%29.92 "HgN/A
12:55 AM79 °FPassing clouds.7 mph84%29.92 "HgN/A
11:55 PM
Wed, Sep 2
79 °FPassing clouds.8 mph84%29.92 "HgN/A
10:55 PM81 °FPartly cloudy.8 mph79%29.95 "HgN/A
9:55 PM81 °FPassing clouds.7 mph79%29.95 "HgN/A
8:55 PM81 °FPartly cloudy.7 mph79%29.95 "HgN/A
7:55 PM81 °FScattered showers. Scattered clouds.10 mph74%29.95 "HgN/A
6:55 PM81 °FPartly sunny.8 mph79%29.95 "HgN/A
5:55 PM82 °FPartly sunny.9 mph74%29.95 "HgN/A
4:55 PM82 °FPartly sunny.12 mph74%29.95 "HgN/A
3:55 PM82 °FBroken clouds.9 mph74%29.98 "HgN/A
2:55 PM82 °FBroken clouds.7 mph74%29.98 "HgN/A
1:55 PM82 °FBroken clouds.10 mph74%29.98 "HgN/A
12:55 PM81 °FScattered showers. Broken clouds.12 mph79%30.01 "HgN/A
11:55 AM77 °FLots of rain. Mostly cloudy.12 mph89%30.01 "HgN/A
10:55 AM79 °FSprinkles. Cloudy.17 mph84%30.01 "HgN/A
10:01 AM77 °FRain showers. Cloudy.10 mph89%30.01 "Hg2 mi
9:55 AM79 °FSprinkles. Cloudy.10 mph79%30.01 "Hg4 mi
8:55 AM79 °FScattered showers. Partly sunny.8 mph79%30.04 "HgN/A
7:55 AM81 °FSprinkles. Cloudy.9 mph79%30.01 "HgN/A
6:55 AM79 °FScattered showers. Partly cloudy.10 mph84%30.01 "HgN/A
Weather by CustomWeather, © 2015

See weather overviewHow to use our weather pages